FENGYUN 1C DEB

Satellite information

Favourite Embed

Satellite Type and Status

DEBRISIN ORBIT

Key statistics

Satellite FENGYUN 1C DEB at a glance.

Uptime

9716

Days in orbit

Revolutions

≈ 14.5

Per day

Orbit

SSO

Sun Synchronous Orbit

Inclination

99.3

Latest

Satellite identification and parameters

Extended collection of information and parameters for FENGYUN 1C DEB.

Object identification

Identified? True

Debris? True

Object name: FENGYUN 1C DEB

International designator: 1999-025CDN

Object number (NORAD): 31715

Object ID (CCSDS): 31715

Country: PEOPLES REPUBLIC OF CHINA (PRC)

Current information (Y/N): Y

RCS size: SMALL

Orbital parameters

Period: 99.161 minutes

Inclination: 99.2934 deg

SMA: 7096.665 km

Apoapsis: 851.301 km

Periapsis: 585.759 km

RAAN: 177.253 deg

Eccentricy: 0.01870892

Argument of periapsis: 114.886 deg

Mean anomaly: 247.1908 deg

Mean motion: 14.52182951 rev/day

Mean motion (dot): 0.00004996 rev/day2

B* drag term: 0.0009910648 1/REarth

Two-line elements (TLE)

Creation date: Dec. 14, 2025, 6:24 p.m.

Reference frame: TEME

Reference center: EARTH

Epoch: Dec. 14, 2025, 6:29 a.m. UTC

TLE line 0: 0 FENGYUN 1C DEB

TLE line 1: 1 31715U 99025CDN 25348.27080985 .00004996 00000-0 99106-3 0 9999

TLE line 2: 2 31715 99.2934 177.2530 0187089 114.8860 247.1908 14.52182951617396

Live tracking on map

Real-time ground track for satellite FENGYUN 1C DEB.

In-orbit conjunctions

A list of the most updated potential collisions computed for object FENGYUN 1C DEB.

Target Orbit TCA Probability of collision Miss distance Type
CZ-6A DEB SSO 2025-08-12 18:51:26 0.0001068689 179.0 (m) DEBRIS
IRIDIUM 33 DEB LEO 2025-03-06 08:05:44 0.0002264361 18.0 (m) DEBRIS
CZ-6A DEB LEO 2024-12-27 05:12:46 0.0002084153 199.0 (m) DEBRIS

Associated space launch

Chinese polar orbiting meteorological satellite

FENGYUN 1C DEB was lifted into orbit during the mission ‘Long March 4B | Feng Yun 1C’, on board a Long March 4B space rocket.

The launch took place on May 10, 1999, 1:33 a.m. from Launch Complex 7.

For more information about the launch, click the button.

Launch to space Long March 4B | Feng Yun 1C
Long March 4B | Feng Yun 1C

Agency: N/A

Status: Launch Successful

Launch date: May 10, 1999, 1:33 a.m. UTC

Rocket: Long March 4B

Launch pad: Launch Complex 7

Location: Taiyuan Satellite Launch Center, People's Republic of China

...

Latest news about this satellite

There are no fresh news available about this satellite. Check back as we update our databases every day.


Newsletter sign-up

Weekly statistics, charts and insights to help you stay on top of the space industry.